Home > Weather > Bengaluru > Past weeks

Flag for India Weather for the Past 2 Weeks in Bengaluru, Karnataka, India

Now
88 °F

Passing clouds.


Feels Like: 90 °F
Forecast: 74 / 101 °F
Wind: 3 mph from West

Location: Bangalore / Hindustan

Current Time: Apr 30, 2016 at 11:24:48 AM

Latest Report: Apr 30, 2016 at 10:00 AM


Visibility: N/A

Pressure: 30.01 "Hg (27.20 "Hg at 876m altitude)

Humidity: 49%

Dew Point: 66 °F

Location of BengaluruLocation

Historic Weather in Bengaluru — Graph

°F

Bengaluru Temperature Yesterday

Maximum temperature yesterday: 97 °F (at 1:30 PM)
Minimum temperature yesterday: 75 °F (at 5:30 AM)
Average temperature yesterday: 89 °F

High & Low Weather Summary for the Past Weeks

 TemperatureHumidityPressure
High99 °F (Apr 17, 3:30 PM)89% (Apr 19, 5:30 AM)30.04 "Hg (Apr 19, 5:30 AM)
Low73 °F (Apr 27, 5:30 AM)18% (Apr 29, 3:30 PM)29.77 "Hg (Apr 24, 3:00 PM)
Average88 °F45%29.93 "Hg
* Reported Apr 15 9:30 AM — Apr 30 10:00 AM, Bengaluru, Weather by CustomWeather, © 2016

Note: Actual official high and low records may vary slightly from our data, if they occured in-between our weather recording intervals... More about our weather records

Advertising

Bengaluru Weather History for the Previous 24 Hours

Scroll right to see more
 ConditionsComfort  
Time TempWeatherWind HumidityBarometerVisibility
10:00 AM
Sat, Apr 30
88 °FPassing clouds.3 mph49%30.01 "HgN/A
7:00 AM75 °FClear.5 mph83%29.98 "Hg4 mi
6:30 AM75 °FClear.5 mph83%29.98 "Hg4 mi
11:30 PM
Fri, Apr 29
82 °FClear.7 mph42%29.98 "Hg10 mi
10:30 PM84 °FClear.7 mph35%29.98 "Hg10 mi
9:30 PM86 °FClear.5 mph31%29.95 "Hg10 mi
8:30 PM88 °FClear.5 mph27%29.95 "Hg10 mi
7:30 PM90 °FClear.5 mph24%29.92 "Hg10 mi
6:30 PM91 °FSunny.6 mph23%29.92 "Hg10 mi
5:30 PM95 °FPassing clouds.6 mph23%29.89 "HgN/A
5:00 PM95 °FPassing clouds.6 mph19%29.89 "HgN/A
4:30 PM97 °FPassing clouds.6 mph18%29.89 "HgN/A
4:00 PM97 °FPassing clouds.5 mph18%29.89 "HgN/A
3:30 PM97 °FPassing clouds.7 mph18%29.89 "HgN/A
3:00 PM97 °FPassing clouds.8 mph19%29.89 "HgN/A
2:30 PM97 °FPassing clouds.No wind19%29.89 "HgN/A
2:00 PM95 °FPassing clouds.6 mph22%29.92 "HgN/A
1:30 PM97 °FPassing clouds.No wind20%29.92 "HgN/A
1:00 PM95 °FPassing clouds.9 mph23%29.95 "HgN/A
12:30 PM93 °FPassing clouds.9 mph26%29.95 "HgN/A
12:00 PM91 °FPassing clouds.No wind32%29.98 "HgN/A
11:30 AM91 °FPassing clouds.6 mph34%29.98 "HgN/A
Weather by CustomWeather, © 2016

See weather overviewHow to use our weather pages